Weather in Mariyets

Russia / Mari El Republic     56°30′59″N   49°50′00″E
temp.,
°C
wind,
m/s
gust,
m/s
humid.,
%
clouds,
%
prec.,
mm/h
press.,
hPa
HPBL,
m
25 february, thu
thu2500:00−26wnw229960 0.0 103420
03:00−27sw229948 0.0 103419
06:00−26ssw239849 0.0 103149
09:00−23s479574 0.0 1028232
12:00−20sse5992100 0.0 1025325
15:00−18sse61296100 0.3 1022430
18:00−18sse61195100 0.7 1020577
21:00−18sse51094100 0.9 1019510
26 february, fri
fri2600:00−19se51095100 0.1 1018422
03:00−19se4995100 0.2 1019387
06:00−20se4996100 0.1 1017317
09:00−19se5995100 0.1 1018337
12:00−16se5993100 0.0 1016420
15:00−16se61193100 0.1 1015473
18:00−16se71492100 0.1 1011529
21:00−15se81594100 0.3 1006535
27 february, sat
sat2700:00−14se71494100 3.9 1002600
03:00−13se61294100 7.1 1000495
06:00−13ese51094100 0.6 999376
09:00−11ese5894100 0.8 998346
12:00−9e5893100 0.3 999397
15:00−9ene5893100 0.6 1000408
18:00−10ne5994100 0.4 1001355
21:00−12ne499497 0.5 1002313
28 february, sun
sun2800:00−13nne499592 0.1 1003292
03:00−14nne499591 0.3 1005298
06:00−15nne499594 0.2 1006321
09:00−15nne489497 0.3 1008337
12:00−14n4793100 0.1 1009378
15:00−14n5893100 0.1 1011405
18:00−17n41095100 0.0 1013296
21:00−19n489793 0.0 1016203
1 march, mon
mon100:00−22n369964 0.0 1017110
03:00−23n489853 0.0 1019154
06:00−23n37980 0.0 1021135
09:00−19n369523 0.0 1022228
12:00−14nnw349219 0.0 1022255
15:00−12nw359121 0.0 1022296
18:00−16w239626 0.0 102029
21:00−15sw489659 0.0 1019176